Location: Unspecified
(50.1700°N, 6.8600°E)
Time: 02:44:30
(UTC+00:00)

N. Korean satellite - Pass Details

Date: 23 September 2020
Orbit: 453 x 505 km, 97.2° (Epoch: 21 October)

Event Time Altitude Azimuth Distance (km) Brightness Sun altitude
Rises 04:35:34 0° 21° (NNE) 2,609 10.7 -8.1°
Reaches altitude 10° 04:37:52 10° 32° (NNE) 1,713 10.0 -7.7°
Maximum altitude 04:41:10 30° 95° (E) 902 8.9 -7.2°
Drops below altitude 10° 04:44:24 10° 159° (SSE) 1,676 9.5 -6.7°
Sets 04:46:36 0° 170° (S) 2,541 10.3 -6.3°
